ITA2233 LRSM-LHBP

Flight info

Callsign ITA2233
Flight time N/A
Altitude 26000
Route DCT KARIL DCT BETED BETED2T
Aircraft A20N/M-SDE2E3FGHIRWXY/LB1

Departure

Time 2026-05-04 18:00
Airport Satu Mare International Airport (LRSM)

Arrival

Time N/A
Airport Budapest Liszt Ferenc International Airport (LHBP)
Time Latitude Longitude Altitude Speed Heading
2026-05-04 17:50 47.70571 22.88315 407 ft 0 kts 286°
2026-05-04 17:53 47.70567 22.88338 409 ft 3 kts 281°
2026-05-04 17:53 47.70558 22.88357 409 ft 0 kts
2026-05-04 17:55 47.70575 22.88362 409 ft 7 kts 14°
2026-05-04 17:55 47.70596 22.88450 410 ft 14 kts 102°
2026-05-04 17:56 47.70576 22.88571 414 ft 0 kts 103°
2026-05-04 17:56 47.70583 22.88629 419 ft 10 kts 51°
2026-05-04 17:56 47.70670 22.88671 416 ft 21 kts 14°
2026-05-04 17:57 47.70862 22.88739 414 ft 32 kts 12°
2026-05-04 17:57 47.71048 22.88803 413 ft 32 kts 13°
2026-05-04 17:57 47.71176 22.88849 409 ft 24 kts 14°
2026-05-04 17:57 47.71330 22.88908 415 ft 18 kts 26°
2026-05-04 17:58 47.71396 22.88965 409 ft 0 kts 336°
2026-05-04 17:58 47.71396 22.88932 416 ft 9 kts 248°
2026-05-04 17:58 47.71373 22.88917 408 ft 0 kts 181°
2026-05-04 17:59 47.71284 22.88889 413 ft 49 kts 193°
2026-05-04 17:59 47.69586 22.88340 811 ft 164 kts 193°
2026-05-04 18:00 47.68437 22.88000 1619 ft 178 kts 194°
2026-05-04 18:00 47.67164 22.87609 2543 ft 188 kts 194°
2026-05-04 18:00 47.65931 22.87239 3849 ft 174 kts 194°
2026-05-04 18:00 47.64769 22.86889 5014 ft 169 kts 195°
2026-05-04 18:01 47.63611 22.86538 5987 ft 172 kts 194°
2026-05-04 18:01 47.62474 22.85986 6925 ft 171 kts 219°
2026-05-04 18:01 47.61822 22.84605 7800 ft 170 kts 258°
2026-05-04 18:02 47.62645 22.81380 9548 ft 177 kts 305°
2026-05-04 18:02 47.63386 22.79904 10391 ft 180 kts 305°
2026-05-04 18:02 47.64137 22.78372 11226 ft 182 kts 304°
2026-05-04 18:02 47.64869 22.76815 12025 ft 185 kts 303°
2026-05-04 18:03 47.65585 22.75245 12785 ft 187 kts 302°
2026-05-04 18:03 47.66321 22.73605 13534 ft 190 kts 302°
2026-05-04 18:03 47.67047 22.71979 14238 ft 192 kts 302°
2026-05-04 18:03 47.67788 22.70317 14923 ft 195 kts 302°
2026-05-04 18:04 47.68540 22.68629 15587 ft 197 kts 302°
2026-05-04 18:04 47.69303 22.66919 16228 ft 199 kts 302°
2026-05-04 18:04 47.70851 22.63448 17369 ft 204 kts 302°
2026-05-04 18:05 47.71637 22.61684 17922 ft 206 kts 302°
2026-05-04 18:05 47.72428 22.59908 18463 ft 208 kts 302°
2026-05-04 18:05 47.73231 22.58103 18987 ft 210 kts 302°
2026-05-04 18:05 47.74033 22.56302 19493 ft 211 kts 302°
2026-05-04 18:06 47.75670 22.52619 20481 ft 215 kts 302°
2026-05-04 18:06 47.76498 22.50755 20957 ft 217 kts 302°
2026-05-04 18:06 47.77333 22.48872 21414 ft 219 kts 302°
2026-05-04 18:07 47.78173 22.46978 21868 ft 220 kts 302°
2026-05-04 18:07 47.79006 22.45054 22300 ft 222 kts 297°
2026-05-04 18:07 47.79586 22.42953 22711 ft 223 kts 284°
2026-05-04 18:07 47.79897 22.40686 23120 ft 224 kts 280°
2026-05-04 18:08 47.80200 22.38433 23510 ft 226 kts 281°
2026-05-04 18:08 47.80517 22.36164 23900 ft 227 kts 281°
2026-05-04 18:08 47.80847 22.33830 24276 ft 229 kts 281°
2026-05-04 18:08 47.81175 22.31506 24648 ft 230 kts 281°
2026-05-04 18:09 47.81836 22.26804 25350 ft 233 kts 281°
2026-05-04 18:09 47.82501 22.22043 25946 ft 238 kts 281°
2026-05-04 18:10 47.82838 22.19620 25999 ft 239 kts 281°
2026-05-04 18:10 47.83177 22.17185 25999 ft 237 kts 281°
2026-05-04 18:10 47.83506 22.14810 26000 ft 237 kts 281°
2026-05-04 18:10 47.83839 22.12411 26000 ft 237 kts 281°
2026-05-04 18:11 47.84171 22.10011 26000 ft 237 kts 281°
2026-05-04 18:11 47.84502 22.07612 25999 ft 237 kts 281°
2026-05-04 18:11 47.84833 22.05214 26000 ft 237 kts 281°
2026-05-04 18:11 47.85161 22.02833 26000 ft 237 kts 281°
2026-05-04 18:12 47.85492 22.00425 26000 ft 237 kts 281°
2026-05-04 18:12 47.85819 21.98040 26000 ft 237 kts 281°
2026-05-04 18:12 47.86149 21.95639 26001 ft 237 kts 281°
2026-05-04 18:12 47.86477 21.93242 26000 ft 237 kts 281°
2026-05-04 18:13 47.86810 21.90806 26001 ft 237 kts 281°
2026-05-04 18:13 47.87138 21.88405 26000 ft 237 kts 281°
2026-05-04 18:13 47.87789 21.83611 26001 ft 237 kts 281°
2026-05-04 18:14 47.88115 21.81204 25982 ft 238 kts 281°
2026-05-04 18:14 47.88457 21.78678 25699 ft 264 kts 281°
2026-05-04 18:14 47.88836 21.75872 25606 ft 285 kts 281°
2026-05-04 18:15 47.89607 21.70169 26690 ft 276 kts 281°
2026-05-04 18:15 47.90364 21.64599 27493 ft 277 kts 281°
2026-05-04 18:15 47.90748 21.61771 27736 ft 282 kts 281°
2026-05-04 18:16 47.91143 21.58878 28039 ft 285 kts 281°
2026-05-04 18:16 47.91534 21.56013 28381 ft 286 kts 281°
2026-05-04 18:16 47.91932 21.53102 28723 ft 287 kts 281°
2026-05-04 18:17 47.92728 21.47290 29306 ft 290 kts 281°
2026-05-04 18:17 47.93136 21.44323 29569 ft 293 kts 281°
2026-05-04 18:17 47.93961 21.38334 30119 ft 297 kts 281°
2026-05-04 18:18 47.94375 21.35326 30393 ft 298 kts 281°
2026-05-04 18:18 47.94796 21.32281 30662 ft 300 kts 281°
2026-05-04 18:18 47.95218 21.29221 30922 ft 302 kts 281°
2026-05-04 18:18 47.95644 21.26142 31177 ft 304 kts 281°
2026-05-04 18:19 47.96353 21.21010 31589 ft 307 kts 281°
2026-05-04 18:19 47.96783 21.17891 31827 ft 308 kts 281°
2026-05-04 18:19 47.97223 21.14704 32069 ft 310 kts 281°
2026-05-04 18:20 47.98171 21.08028 29910 ft 389 kts 283°
2026-05-04 18:20 47.98855 21.03665 27133 ft 472 kts 283°
2026-05-04 18:20 47.99658 20.98670 26047 ft 501 kts 283°
2026-05-04 18:21 48.00469 20.93650 26099 ft 497 kts 283°
2026-05-04 18:21 48.01282 20.88585 25307 ft 503 kts 283°
2026-05-04 18:21 48.02105 20.83492 24245 ft 503 kts 283°